KD6VLN-14 Weather Reports


Display with metric or nautical units.
time (UTC)temp
F
wind
direction
speed
MPH
gust
MPH
rain 1hr
in
rain 24hr
in
rain mn
in
humidity
%
barometer
mb
20260507002407 83 310 3.0 6.0 0.00 0.00 0.00 35
20260507001907 83 340 3.0 6.0 0.00 0.00 0.00 35
20260507001407 83 310 2.0 5.0 0.00 0.00 0.00 35
20260507000907 83 0 1.0 7.0 0.00 0.00 0.00 35
20260507000409 83 319 3.0 7.0 0.00 0.00 0.00 35
20260506235907 83 356 3.0 6.0 0.00 0.00 0.00 35
20260506235407 83 347 3.0 7.0 0.00 0.00 0.00 35
20260506234907 83 322 3.0 7.0 0.00 0.00 0.00 35
20260506234407 83 351 3.0 9.0 0.00 0.00 0.00 35
20260506233907 84 298 5.0 9.0 0.00 0.00 0.00 35
20260506233407 83 321 3.0 6.0 0.00 0.00 0.00 35
20260506232907 84 316 4.0 6.0 0.00 0.00 0.00 35
20260506232407 84 310 4.0 7.0 0.00 0.00 0.00 35
20260506231907 84 6 3.0 7.0 0.00 0.00 0.00 35
20260506231407 84 319 3.0 6.0 0.00 0.00 0.00 35
20260506230907 84 317 3.0 6.0 0.00 0.00 0.00 35
20260506230407 84 188 3.0 5.0 0.00 0.00 0.00 36
20260506225908 84 242 3.0 6.0 0.00 0.00 0.00 36
20260506225906 83 311 3.0 8.0 0.00 0.00 0.00 34
20260506225407 83 311 3.0 8.0 0.00 0.00 0.00 34
20260506225212 83 309 4.0 8.0 0.00 0.00 0.00 34
20260506224907 83 309 4.0 8.0 0.00 0.00 0.00 34
20260506224651 84 283 4.0 10.0 0.00 0.00 0.00 34
20260506224410 84 283 4.0 10.0 0.00 0.00 0.00 34
20260506224226 84 272 5.0 10.0 0.00 0.00 0.00 35
20260506223907 84 272 5.0 10.0 0.00 0.00 0.00 35
20260506223710 85 305 5.0 10.0 0.00 0.00 0.00 34
20260506223407 85 305 5.0 10.0 0.00 0.00 0.00 34
20260506223147 85 347 3.0 7.0 0.00 0.00 0.00 34
20260506222907 85 347 3.0 7.0 0.00 0.00 0.00 34
20260506222644 85 301 4.0 7.0 0.00 0.00 0.00 34
20260506222408 85 301 4.0 7.0 0.00 0.00 0.00 34
20260506222214 84 306 3.0 7.0 0.00 0.00 0.00 34
20260506221908 84 306 3.0 7.0 0.00 0.00 0.00 34
20260506221710 83 348 3.0 7.0 0.00 0.00 0.00 35
20260506221407 83 348 3.0 7.0 0.00 0.00 0.00 35
20260506221312 84 247 3.0 10.0 0.00 0.00 0.00 36
20260506220907 84 247 3.0 10.0 0.00 0.00 0.00 36
20260506220640 84 252 5.0 10.0 0.00 0.00 0.00 36
20260506220407 84 252 5.0 10.0 0.00 0.00 0.00 36
20260506220325 84 267 4.0 10.0 0.00 0.00 0.00 36
20260506215907 84 267 4.0 10.0 0.00 0.00 0.00 36
20260506215657 84 355 1.0 8.0 0.00 0.00 0.00 35
20260506215408 84 355 1.0 8.0 0.00 0.00 0.00 35
20260506215301 84 283 3.0 9.0 0.00 0.00 0.00 35
20260506214907 84 283 3.0 9.0 0.00 0.00 0.00 35
20260506214658 85 272 5.0 9.0 0.00 0.00 0.00 35
20260506214408 85 272 5.0 9.0 0.00 0.00 0.00 35
20260506214259 85 279 2.0 7.0 0.00 0.00 0.00 34
20260506213907 85 279 2.0 7.0 0.00 0.00 0.00 34
20260506213650 85 271 3.0 7.0 0.00 0.00 0.00 34
20260506213407 85 271 3.0 7.0 0.00 0.00 0.00 34
20260506213207 83 357 1.0 8.0 0.00 0.00 0.00 34
20260506212907 83 357 1.0 8.0 0.00 0.00 0.00 34
20260506212805 83 295 3.0 8.0 0.00 0.00 0.00 36
20260506212412 83 295 3.0 8.0 0.00 0.00 0.00 36
20260506212246 83 324 3.0 6.0 0.00 0.00 0.00 35
20260506211907 83 324 3.0 6.0 0.00 0.00 0.00 35
20260506211651 82 324 3.0 5.0 0.00 0.00 0.00 34
20260506211407 82 324 3.0 5.0 0.00 0.00 0.00 34
20260506211123 82 354 3.0 7.0 0.00 0.00 0.00 35
20260506210907 82 354 3.0 7.0 0.00 0.00 0.00 35
20260506210639 82 317 4.0 7.0 0.00 0.00 0.00 35
20260506210407 82 317 4.0 7.0 0.00 0.00 0.00 35
20260506210205 82 8 3.0 7.0 0.00 0.00 0.00 35
20260506205907 82 8 3.0 7.0 0.00 0.00 0.00 35
20260506205630 81 3 3.0 8.0 0.00 0.00 0.00 35
20260506205407 81 3 3.0 8.0 0.00 0.00 0.00 35
20260506204658 81 42 4.0 10.0 0.00 0.00 0.00 35
20260506204408 81 42 4.0 10.0 0.00 0.00 0.00 35
20260506204303 82 2 4.0 10.0 0.00 0.00 0.00 35
20260506203907 82 2 4.0 10.0 0.00 0.00 0.00 35
20260506203646 83 320 3.0 8.0 0.00 0.00 0.00 35
20260506203407 83 320 3.0 8.0 0.00 0.00 0.00 35
20260506203220 82 289 3.0 8.0 0.00 0.00 0.00 36
20260506202907 82 289 3.0 8.0 0.00 0.00 0.00 36
20260506202759 81 278 3.0 8.0 0.00 0.00 0.00 36
20260506202408 81 278 3.0 8.0 0.00 0.00 0.00 36
20260506202200 80 50 3.0 7.0 0.00 0.00 0.00 35
20260506201907 80 50 3.0 7.0 0.00 0.00 0.00 35
20260506201701 80 266 3.0 7.0 0.00 0.00 0.00 36
20260506201407 80 266 3.0 7.0 0.00 0.00 0.00 36
20260506201232 80 248 3.0 8.0 0.00 0.00 0.00 36
20260506200908 80 248 3.0 8.0 0.00 0.00 0.00 36
20260506200635 80 259 4.0 9.0 0.00 0.00 0.00 36
20260506200407 80 259 4.0 9.0 0.00 0.00 0.00 36
20260506200148 81 244 6.0 9.0 0.00 0.00 0.00 36
20260506195907 81 244 6.0 9.0 0.00 0.00 0.00 36
20260506195704 81 264 3.0 7.0 0.00 0.00 0.00 36
20260506195408 81 264 3.0 7.0 0.00 0.00 0.00 36
20260506195216 81 263 3.0 7.0 0.00 0.00 0.00 36
20260506194907 81 263 3.0 7.0 0.00 0.00 0.00 36
20260506194652 80 287 3.0 5.0 0.00 0.00 0.00 36
20260506194408 80 287 3.0 5.0 0.00 0.00 0.00 36
20260506194220 79 358 2.0 5.0 0.00 0.00 0.00 35
20260506193907 79 358 2.0 5.0 0.00 0.00 0.00 35
20260506193717 79 309 3.0 8.0 0.00 0.00 0.00 36
20260506193407 79 309 3.0 8.0 0.00 0.00 0.00 36
20260506193145 79 271 4.0 8.0 0.00 0.00 0.00 36
20260506192907 79 271 4.0 8.0 0.00 0.00 0.00 36
20260506192705 79 354 4.0 9.0 0.00 0.00 0.00 36
20260506192408 79 354 4.0 9.0 0.00 0.00 0.00 36
20260506192241 78 262 4.0 9.0 0.00 0.00 0.00 36
20260506191907 78 262 4.0 9.0 0.00 0.00 0.00 36
20260506191627 79 245 5.0 8.0 0.00 0.00 0.00 36
20260506191407 79 245 5.0 8.0 0.00 0.00 0.00 36
20260506191243 78 273 3.0 8.0 0.00 0.00 0.00 36
20260506190908 78 273 3.0 8.0 0.00 0.00 0.00 36
20260506190834 78 358 3.0 6.0 0.00 0.00 0.00 35
20260506190407 78 358 3.0 6.0 0.00 0.00 0.00 35
20260506190248 78 275 3.0 7.0 0.00 0.00 0.00 36
20260506185907 78 275 3.0 7.0 0.00 0.00 0.00 36
20260506185842 78 312 4.0 7.0 0.00 0.00 0.00 35
20260506185811 78 312 4.0 7.0 0.00 0.00 0.00 35
20260506185407 78 312 4.0 7.0 0.00 0.00 0.00 35
20260506185314 77 315 3.0 7.0 0.00 0.00 0.00 36
20260506184907 77 315 3.0 7.0 0.00 0.00 0.00 36
20260506184703 77 112 3.0 7.0 0.00 0.00 0.00 36
20260506184407 77 112 3.0 7.0 0.00 0.00 0.00 36
20260506184156 77 317 2.0 5.0 0.00 0.00 0.00 36
20260506183907 77 317 2.0 5.0 0.00 0.00 0.00 36
20260506183514 77 354 2.0 7.0 0.00 0.00 0.00 35
20260506183407 77 354 2.0 7.0 0.00 0.00 0.00 35
20260506183132 77 313 3.0 9.0 0.00 0.00 0.00 36
20260506182907 77 313 3.0 9.0 0.00 0.00 0.00 36
20260506182642 77 278 4.0 9.0 0.00 0.00 0.00 36
20260506182407 77 278 4.0 9.0 0.00 0.00 0.00 36
20260506182244 77 227 3.0 7.0 0.00 0.00 0.00 36
20260506181907 77 227 3.0 7.0 0.00 0.00 0.00 36
20260506181707 78 259 4.0 7.0 0.00 0.00 0.00 36
20260506181407 78 259 4.0 7.0 0.00 0.00 0.00 36
20260506181201 77 283 2.0 10.0 0.00 0.00 0.00 36
20260506180908 77 283 2.0 10.0 0.00 0.00 0.00 36
20260506180610 78 299 3.0 10.0 0.00 0.00 0.00 36
20260506180409 78 299 3.0 10.0 0.00 0.00 0.00 36
20260506180148 77 322 2.0 7.0 0.00 0.00 0.00 36
20260506175907 77 322 2.0 7.0 0.00 0.00 0.00 36
20260506175734 76 358 1.0 7.0 0.00 0.00 0.00 36
20260506175407 76 358 1.0 7.0 0.00 0.00 0.00 36
20260506175219 77 217 3.0 7.0 0.00 0.00 0.00 37
20260506174907 77 217 3.0 7.0 0.00 0.00 0.00 37
20260506174634 78 232 4.0 6.0 0.00 0.00 0.00 37
20260506174407 78 232 4.0 6.0 0.00 0.00 0.00 37
20260506174209 77 272 2.0 5.0 0.00 0.00 0.00 36
20260506173907 77 272 2.0 5.0 0.00 0.00 0.00 36
20260506173712 76 311 3.0 5.0 0.00 0.00 0.00 36
20260506173407 76 311 3.0 5.0 0.00 0.00 0.00 36
20260506173147 74 7 1.0 6.0 0.00 0.00 0.00 36
20260506172908 74 7 1.0 6.0 0.00 0.00 0.00 36
20260506172657 74 42 3.0 7.0 0.00 0.00 0.00 35
20260506172407 74 42 3.0 7.0 0.00 0.00 0.00 35
20260506172135 74 4 4.0 7.0 0.00 0.00 0.00 35
20260506171907 74 4 4.0 7.0 0.00 0.00 0.00 35
20260506171643 75 252 4.0 7.0 0.00 0.00 0.00 36
20260506171407 75 252 4.0 7.0 0.00 0.00 0.00 36
20260506171213 75 4 3.0 5.0 0.00 0.00 0.00 36
20260506170908 75 4 3.0 5.0 0.00 0.00 0.00 36
20260506170654 75 10 3.0 6.0 0.00 0.00 0.00 35
20260506170407 75 10 3.0 6.0 0.00 0.00 0.00 35
20260506170115 75 9 3.0 6.0 0.00 0.00 0.00 36
20260506165907 75 9 3.0 6.0 0.00 0.00 0.00 36
20260506165651 75 280 3.0 6.0 0.00 0.00 0.00 36
20260506165407 75 280 3.0 6.0 0.00 0.00 0.00 36
20260506165155 74 34 2.0 5.0 0.00 0.00 0.00 35
20260506164907 74 34 2.0 5.0 0.00 0.00 0.00 35
20260506164652 74 355 2.0 5.0 0.00 0.00 0.00 36
20260506164407 74 355 2.0 5.0 0.00 0.00 0.00 36
20260506164219 74 7 2.0 5.0 0.00 0.00 0.00 36
20260506163907 74 7 2.0 5.0 0.00 0.00 0.00 36
20260506163706 74 264 2.0 6.0 0.00 0.00 0.00 36
20260506163407 74 264 2.0 6.0 0.00 0.00 0.00 36
20260506163231 74 266 3.0 6.0 0.00 0.00 0.00 37
20260506162907 74 266 3.0 6.0 0.00 0.00 0.00 37
20260506162407 74 304 2.0 6.0 0.00 0.00 0.00 36
20260506162246 74 272 3.0 6.0 0.00 0.00 0.00 36
20260506161907 74 272 3.0 6.0 0.00 0.00 0.00 36
20260506161714 73 358 1.0 6.0 0.00 0.00 0.00 36
20260506161407 73 358 1.0 6.0 0.00 0.00 0.00 36
20260506161304 73 10 3.0 6.0 0.00 0.00 0.00 36
20260506160908 73 10 3.0 6.0 0.00 0.00 0.00 36
20260506160758 73 316 2.0 6.0 0.00 0.00 0.00 36
20260506160407 73 316 2.0 6.0 0.00 0.00 0.00 36
20260506160240 73 285 3.0 6.0 0.00 0.00 0.00 36
20260506155908 73 285 3.0 6.0 0.00 0.00 0.00 36
20260506155819 72 89 2.0 5.0 0.00 0.00 0.00 36
20260506155407 72 89 2.0 5.0 0.00 0.00 0.00 36
20260506155336 72 169 3.0 5.0 0.00 0.00 0.00 37
20260506154907 72 169 3.0 5.0 0.00 0.00 0.00 37
20260506154100 72 275 2.0 6.0 0.00 0.00 0.00 36
20260506153907 72 275 2.0 6.0 0.00 0.00 0.00 36
20260506153553 72 237 3.0 5.0 0.00 0.00 0.00 37
20260506153408 72 237 3.0 5.0 0.00 0.00 0.00 37
20260506153142 70 100 1.0 5.0 0.00 0.00 0.00 36
20260506152908 70 100 1.0 5.0 0.00 0.00 0.00 36
20260506152706 70 117 2.0 4.0 0.00 0.00 0.00 37
20260506152408 70 117 2.0 4.0 0.00 0.00 0.00 37
20260506152221 70 174 2.0 4.0 0.00 0.00 0.00 37
20260506151907 70 174 2.0 4.0 0.00 0.00 0.00 37
20260506151651 70 228 2.0 4.0 0.00 0.00 0.00 37
20260506151407 70 228 2.0 4.0 0.00 0.00 0.00 37
20260506151213 70 311 1.0 5.0 0.00 0.00 0.00 37
20260506150908 70 311 1.0 5.0 0.00 0.00 0.00 37
20260506150733 69 239 2.0 5.0 0.00 0.00 0.00 37
20260506150407 69 239 2.0 5.0 0.00 0.00 0.00 37
20260506150224 68 41 1.0 3.0 0.00 0.00 0.00 38
20260506145907 68 41 1.0 3.0 0.00 0.00 0.00 38
20260506145726 68 46 1.0 3.0 0.00 0.00 0.00 37
20260506145408 68 46 1.0 3.0 0.00 0.00 0.00 37
20260506145157 67 315 1.0 3.0 0.00 0.00 0.00 37
20260506144907 67 315 1.0 3.0 0.00 0.00 0.00 37
20260506144650 67 245 1.0 3.0 0.00 0.00 0.00 38
20260506144407 67 245 1.0 3.0 0.00 0.00 0.00 38
20260506144103 67 234 2.0 3.0 0.00 0.00 0.00 38
20260506143908 67 234 2.0 3.0 0.00 0.00 0.00 38
20260506143757 65 140 1.0 3.0 0.00 0.00 0.00 40
20260506143408 65 140 1.0 3.0 0.00 0.00 0.00 40
20260506143217 64 157 0.0 0.0 0.00 0.00 0.00 40
20260506142908 64 157 0.0 0.0 0.00 0.00 0.00 40
20260506142628 64 175 0.0 0.0 0.00 0.00 0.00 39
20260506142409 64 175 0.0 0.0 0.00 0.00 0.00 39
20260506142126 63 135 0.0 2.0 0.00 0.00 0.00 37
20260506141908 63 135 0.0 2.0 0.00 0.00 0.00 37
20260506141656 62 111 0.0 2.0 0.00 0.00 0.00 38
20260506141408 62 111 0.0 2.0 0.00 0.00 0.00 38
20260506141142 61 71 0.0 3.0 0.00 0.00 0.00 38
20260506140908 61 71 0.0 3.0 0.00 0.00 0.00 38
20260506140605 61 73 1.0 4.0 0.00 0.00 0.00 38
20260506140408 61 73 1.0 4.0 0.00 0.00 0.00 38
20260506140029 60 50 2.0 4.0 0.00 0.00 0.00 38
20260506135908 60 50 2.0 4.0 0.00 0.00 0.00 38
20260506135540 59 108 2.0 4.0 0.00 0.00 0.00 38
20260506135408 59 108 2.0 4.0 0.00 0.00 0.00 38
20260506135045 59 83 1.0 4.0 0.00 0.00 0.00 37
20260506134910 59 83 1.0 4.0 0.00 0.00 0.00 37
20260506134519 58 75 1.0 4.0 0.00 0.00 0.00 36
20260506134408 58 75 1.0 4.0 0.00 0.00 0.00 36
20260506134010 57 66 1.0 4.0 0.00 0.00 0.00 36
20260506133908 57 66 1.0 4.0 0.00 0.00 0.00 36
20260506133515 57 58 1.0 4.0 0.00 0.00 0.00 36
20260506133407 57 58 1.0 4.0 0.00 0.00 0.00 36
20260506133037 56 84 1.0 3.0 0.00 0.00 0.00 36
20260506132908 56 84 1.0 3.0 0.00 0.00 0.00 36
20260506132537 55 55 0.0 3.0 0.00 0.00 0.00 35
20260506132409 55 55 0.0 3.0 0.00 0.00 0.00 35
20260506131908 55 51 0.0 0.0 0.00 0.00 0.00 35
20260506131540 54 70 0.0 0.0 0.00 0.00 0.00 36
20260506131408 54 70 0.0 0.0 0.00 0.00 0.00 36
20260506131030 53 67 0.0 0.0 0.00 0.00 0.00 36
20260506130908 53 67 0.0 0.0 0.00 0.00 0.00 36
20260506130525 52 59 0.0 0.0 0.00 0.00 0.00 35
20260506130408 52 59 0.0 0.0 0.00 0.00 0.00 35
20260506130043 51 66 0.0 0.0 0.00 0.00 0.00 35
20260506125908 51 66 0.0 0.0 0.00 0.00 0.00 35
20260506125530 49 82 0.0 0.0 0.00 0.00 0.00 36
20260506125408 49 82 0.0 0.0 0.00 0.00 0.00 36
20260506125101 49 86 0.0 0.0 0.00 0.00 0.00 36
20260506124908 49 86 0.0 0.0 0.00 0.00 0.00 36
20260506124602 48 65 0.0 0.0 0.00 0.00 0.00 35
20260506124408 48 65 0.0 0.0 0.00 0.00 0.00 35
20260506124119 49 50 0.0 0.0 0.00 0.00 0.00 35
20260506123908 49 50 0.0 0.0 0.00 0.00 0.00 35
20260506123628 49 51 0.0 0.0 0.00 0.00 0.00 35
20260506123408 49 51 0.0 0.0 0.00 0.00 0.00 35
20260506122636 49 52 0.0 0.0 0.00 0.00 0.00 35
20260506122410 49 52 0.0 0.0 0.00 0.00 0.00 35
20260506122056 49 50 0.0 0.0 0.00 0.00 0.00 35
20260506121908 49 50 0.0 0.0 0.00 0.00 0.00 35
20260506121654 49 49 0.0 0.0 0.00 0.00 0.00 35
20260506121408 49 49 0.0 0.0 0.00 0.00 0.00 35
20260506121223 49 92 0.0 0.0 0.00 0.00 0.00 35
20260506120908 49 92 0.0 0.0 0.00 0.00 0.00 35
20260506120759 49 88 0.0 0.0 0.00 0.00 0.00 35
20260506120408 49 88 0.0 0.0 0.00 0.00 0.00 35
20260506120041 49 70 0.0 0.0 0.00 0.00 0.00 35
20260506115908 49 70 0.0 0.0 0.00 0.00 0.00 35
20260506115711 50 77 0.0 0.0 0.00 0.00 0.00 35
20260506115408 50 77 0.0 0.0 0.00 0.00 0.00 35
20260506115301 51 129 0.0 0.0 0.00 0.00 0.00 36
20260506114908 51 129 0.0 0.0 0.00 0.00 0.00 36
20260506114709 51 110 0.0 0.0 0.00 0.00 0.00 36
20260506114408 51 110 0.0 0.0 0.00 0.00 0.00 36
20260506114313 51 124 0.0 0.0 0.00 0.00 0.00 36
20260506113908 51 124 0.0 0.0 0.00 0.00 0.00 36
20260506113624 51 109 0.0 0.0 0.00 0.00 0.00 36
20260506113408 51 109 0.0 0.0 0.00 0.00 0.00 36
20260506113258 51 119 0.0 2.0 0.00 0.00 0.00 36
20260506112908 51 119 0.0 2.0 0.00 0.00 0.00 36
20260506112737 51 109 0.0 2.0 0.00 0.00 0.00 36
20260506112408 51 109 0.0 2.0 0.00 0.00 0.00 36
20260506112201 52 126 0.0 0.0 0.00 0.00 0.00 37
20260506111908 52 126 0.0 0.0 0.00 0.00 0.00 37
20260506111524 52 198 0.0 1.0 0.00 0.00 0.00 37
20260506111408 52 198 0.0 1.0 0.00 0.00 0.00 37
20260506111008 52 196 0.0 2.0 0.00 0.00 0.00 37
20260506110908 52 196 0.0 2.0 0.00 0.00 0.00 37
20260506110521 52 192 0.0 2.0 0.00 0.00 0.00 37
20260506110018 52 196 0.0 2.0 0.00 0.00 0.00 37
20260506105908 52 196 0.0 2.0 0.00 0.00 0.00 37
20260506105532 53 204 0.0 2.0 0.00 0.00 0.00 37
20260506105409 53 204 0.0 2.0 0.00 0.00 0.00 37
20260506105010 53 189 0.0 3.0 0.00 0.00 0.00 37
20260506104908 53 189 0.0 3.0 0.00 0.00 0.00 37
20260506104033 53 194 0.0 2.0 0.00 0.00 0.00 37
20260506103909 53 194 0.0 2.0 0.00 0.00 0.00 37
20260506103500 53 199 0.0 4.0 0.00 0.00 0.00 37
20260506103408 53 199 0.0 4.0 0.00 0.00 0.00 37
20260506103041 53 200 1.0 4.0 0.00 0.00 0.00 37
20260506102908 53 200 1.0 4.0 0.00 0.00 0.00 37
20260506102509 53 202 0.0 3.0 0.00 0.00 0.00 37
20260506102408 53 202 0.0 3.0 0.00 0.00 0.00 37
20260506102006 53 193 0.0 1.0 0.00 0.00 0.00 37
20260506101909 53 193 0.0 1.0 0.00 0.00 0.00 37
20260506101607 53 214 0.0 1.0 0.00 0.00 0.00 37
20260506101408 53 214 0.0 1.0 0.00 0.00 0.00 37
20260506101041 53 181 0.0 0.0 0.00 0.00 0.00 37
20260506100908 53 181 0.0 0.0 0.00 0.00 0.00 37
20260506100517 53 188 0.0 0.0 0.00 0.00 0.00 37
20260506100408 53 188 0.0 0.0 0.00 0.00 0.00 37
20260506100019 53 202 0.0 0.0 0.00 0.00 0.00 37
20260506095908 53 202 0.0 0.0 0.00 0.00 0.00 37
20260506095616 53 186 0.0 1.0 0.00 0.00 0.00 37
20260506095408 53 186 0.0 1.0 0.00 0.00 0.00 37
20260506095040 53 195 0.0 1.0 0.00 0.00 0.00 37
20260506094908 53 195 0.0 1.0 0.00 0.00 0.00 37
20260506094523 53 196 0.0 0.0 0.00 0.00 0.00 37
20260506094408 53 196 0.0 0.0 0.00 0.00 0.00 37
20260506094054 53 184 0.0 0.0 0.00 0.00 0.00 37
20260506093908 53 184 0.0 0.0 0.00 0.00 0.00 37
20260506093545 53 177 0.0 0.0 0.00 0.00 0.00 37
20260506093408 53 177 0.0 0.0 0.00 0.00 0.00 37
20260506093051 53 181 0.0 0.0 0.00 0.00 0.00 37
20260506092908 53 181 0.0 0.0 0.00 0.00 0.00 37
20260506092533 54 190 0.0 2.0 0.00 0.00 0.00 37
20260506092408 54 190 0.0 2.0 0.00 0.00 0.00 37
20260506092125 54 192 0.0 4.0 0.00 0.00 0.00 37
20260506091908 54 192 0.0 4.0 0.00 0.00 0.00 37
20260506091752 54 200 0.0 4.0 0.00 0.00 0.00 37
20260506091408 54 200 0.0 4.0 0.00 0.00 0.00 37
20260506091133 54 205 0.0 4.0 0.00 0.00 0.00 37
20260506090908 54 205 0.0 4.0 0.00 0.00 0.00 37
20260506090642 54 198 0.0 4.0 0.00 0.00 0.00 37
20260506090408 54 198 0.0 4.0 0.00 0.00 0.00 37
20260506090037 54 201 0.0 3.0 0.00 0.00 0.00 37
20260506085909 54 201 0.0 3.0 0.00 0.00 0.00 37
20260506085517 55 202 0.0 3.0 0.00 0.00 0.00 37
20260506085408 55 202 0.0 3.0 0.00 0.00 0.00 37
20260506085122 55 202 0.0 3.0 0.00 0.00 0.00 37
20260506084909 55 202 0.0 3.0 0.00 0.00 0.00 37
20260506084640 55 202 0.0 3.0 0.00 0.00 0.00 37
20260506084410 55 202 0.0 3.0 0.00 0.00 0.00 37
20260506084116 55 203 0.0 3.0 0.00 0.00 0.00 37
20260506083908 55 203 0.0 3.0 0.00 0.00 0.00 37
20260506083656 55 202 0.0 3.0 0.00 0.00 0.00 37
20260506083409 55 202 0.0 3.0 0.00 0.00 0.00 37
20260506083128 55 209 1.0 3.0 0.00 0.00 0.00 37
20260506082908 55 209 1.0 3.0 0.00 0.00 0.00 37
20260506082759 55 205 0.0 2.0 0.00 0.00 0.00 37
20260506082408 55 205 0.0 2.0 0.00 0.00 0.00 37
20260506082327 55 207 0.0 3.0 0.00 0.00 0.00 37
20260506081911 55 197 0.0 3.0 0.00 0.00 0.00 37
20260506081908 55 207 0.0 3.0 0.00 0.00 0.00 37
20260506081408 55 197 0.0 3.0 0.00 0.00 0.00 37
20260506081258 55 202 0.0 3.0 0.00 0.00 0.00 37
20260506080908 55 202 0.0 3.0 0.00 0.00 0.00 37
20260506080905 55 204 0.0 3.0 0.00 0.00 0.00 37
20260506080816 55 204 0.0 3.0 0.00 0.00 0.00 37
20260506080408 55 204 0.0 3.0 0.00 0.00 0.00 37
20260506080240 55 214 0.0 2.0 0.00 0.00 0.00 37
20260506073408 55 224 0.0 0.0 0.00 0.00 0.00 37
20260506073139 56 224 0.0 0.0 0.00 0.00 0.00 36
20260506072908 56 224 0.0 0.0 0.00 0.00 0.00 36
20260506072815 56 223 0.0 0.0 0.00 0.00 0.00 37
20260506072408 56 223 0.0 0.0 0.00 0.00 0.00 37
20260506072145 56 224 0.0 0.0 0.00 0.00 0.00 37
20260506071908 56 224 0.0 0.0 0.00 0.00 0.00 37
20260506071647 56 219 0.0 0.0 0.00 0.00 0.00 37
20260506071408 56 219 0.0 0.0 0.00 0.00 0.00 37
20260506071240 56 212 0.0 0.0 0.00 0.00 0.00 37
20260506070908 56 212 0.0 0.0 0.00 0.00 0.00 37
20260506070642 56 220 0.0 0.0 0.00 0.00 0.00 37
20260506070408 56 220 0.0 0.0 0.00 0.00 0.00 37
20260506070114 57 226 0.0 0.0 0.00 0.00 0.00 37
20260506062408 58 236 0.0 1.0 0.00 0.00 0.00 37
20260506062259 59 248 0.0 6.0 0.00 0.00 0.00 37
20260506061908 59 248 0.0 6.0 0.00 0.00 0.00 37
20260506061656 59 251 0.0 6.0 0.00 0.00 0.00 37
20260506061408 59 251 0.0 6.0 0.00 0.00 0.00 37
20260506061400 59 256 1.0 6.0 0.00 0.00 0.00 36
20260506060908 59 256 1.0 6.0 0.00 0.00 0.00 36
20260506060607 59 253 0.0 7.0 0.00 0.00 0.00 36
20260506060408 59 253 0.0 7.0 0.00 0.00 0.00 36
20260506051408 59 242 0.0 0.0 0.00 0.00 0.00 36
20260506051257 60 229 0.0 0.0 0.00 0.00 0.00 36
20260506050908 60 229 0.0 0.0 0.00 0.00 0.00 36
20260506050758 60 245 0.0 0.0 0.00 0.00 0.00 37
20260506050408 60 245 0.0 0.0 0.00 0.00 0.00 37
20260506050246 60 250 0.0 0.0 0.00 0.00 0.00 36
20260506044908 61 269 0.0 0.0 0.00 0.00 0.00 36
20260506044525 61 265 0.0 5.0 0.00 0.00 0.00 36
20260506044410 61 265 0.0 5.0 0.00 0.00 0.00 36
20260506044128 61 264 0.0 7.0 0.00 0.00 0.00 36
20260506043908 61 264 0.0 7.0 0.00 0.00 0.00 36
20260506043648 62 265 1.0 7.0 0.00 0.00 0.00 36
20260506043408 62 265 1.0 7.0 0.00 0.00 0.00 36
20260506043131 62 262 2.0 8.0 0.00 0.00 0.00 36
20260506042908 62 262 2.0 8.0 0.00 0.00 0.00 36
20260506042716 62 255 3.0 9.0 0.00 0.00 0.00 36
20260506042408 62 255 3.0 9.0 0.00 0.00 0.00 36
20260506042155 62 255 3.0 9.0 0.00 0.00 0.00 36
20260506041908 62 255 3.0 9.0 0.00 0.00 0.00 36
20260506041720 62 253 3.0 8.0 0.00 0.00 0.00 36
20260506041408 62 253 3.0 8.0 0.00 0.00 0.00 36
20260506041044 62 247 1.0 6.0 0.00 0.00 0.00 36
20260506040910 62 247 1.0 6.0 0.00 0.00 0.00 36
20260506040634 62 253 1.0 6.0 0.00 0.00 0.00 36
20260506040408 62 253 1.0 6.0 0.00 0.00 0.00 36
20260506040223 62 252 0.0 6.0 0.00 0.00 0.00 36
20260506035908 62 252 0.0 6.0 0.00 0.00 0.00 36
20260506035733 62 239 0.0 0.0 0.00 0.00 0.00 36
20260506035408 62 239 0.0 0.0 0.00 0.00 0.00 36
20260506035231 63 234 0.0 2.0 0.00 0.00 0.00 36
20260506034908 63 234 0.0 2.0 0.00 0.00 0.00 36
20260506034655 63 238 0.0 2.0 0.00 0.00 0.00 36
20260506034408 63 238 0.0 2.0 0.00 0.00 0.00 36
20260506034201 63 261 0.0 1.0 0.00 0.00 0.00 36
20260506033908 63 261 0.0 1.0 0.00 0.00 0.00 36
20260506033556 63 262 0.0 8.0 0.00 0.00 0.00 36
20260506033409 63 262 0.0 8.0 0.00 0.00 0.00 36
20260506033216 64 257 2.0 8.0 0.00 0.00 0.00 36
20260506032908 64 257 2.0 8.0 0.00 0.00 0.00 36
20260506032733 64 260 2.0 9.0 0.00 0.00 0.00 36
20260506032408 64 260 2.0 9.0 0.00 0.00 0.00 36
20260506032110 64 259 3.0 9.0 0.00 0.00 0.00 36
20260506031908 64 259 3.0 9.0 0.00 0.00 0.00 36
20260506031732 64 265 4.0 9.0 0.00 0.00 0.00 36
20260506031408 64 265 4.0 9.0 0.00 0.00 0.00 36
20260506031150 64 264 4.0 10.0 0.00 0.00 0.00 36
20260506030908 64 264 4.0 10.0 0.00 0.00 0.00 36
20260506030638 64 263 6.0 10.0 0.00 0.00 0.00 36
20260506030408 64 263 6.0 10.0 0.00 0.00 0.00 36
20260506030205 64 262 6.0 10.0 0.00 0.00 0.00 36
20260506025733 64 258 5.0 12.0 0.00 0.00 0.00 36
20260506025408 64 258 5.0 12.0 0.00 0.00 0.00 36
20260506025209 64 256 8.0 12.0 0.00 0.00 0.00 36
20260506024908 64 256 8.0 12.0 0.00 0.00 0.00 36
20260506024655 64 266 6.0 10.0 0.00 0.00 0.00 36
20260506024408 64 266 6.0 10.0 0.00 0.00 0.00 36
20260506024103 65 263 6.0 12.0 0.00 0.00 0.00 36
20260506023908 65 263 6.0 12.0 0.00 0.00 0.00 36
20260506023638 65 263 8.0 14.0 0.00 0.00 0.00 36
20260506023408 65 263 8.0 14.0 0.00 0.00 0.00 36
20260506023202 65 266 7.0 14.0 0.00 0.00 0.00 36
20260506022908 65 266 7.0 14.0 0.00 0.00 0.00 36
20260506022649 65 262 7.0 13.0 0.00 0.00 0.00 36
20260506022408 65 262 7.0 13.0 0.00 0.00 0.00 36
20260506022145 65 275 8.0 13.0 0.00 0.00 0.00 36
20260506021908 65 275 8.0 13.0 0.00 0.00 0.00 36
20260506021644 65 276 5.0 13.0 0.00 0.00 0.00 36
20260506021408 65 276 5.0 13.0 0.00 0.00 0.00 36
20260506021143 66 274 5.0 11.0 0.00 0.00 0.00 36
20260506020908 66 274 5.0 11.0 0.00 0.00 0.00 36
20260506020608 67 271 6.0 13.0 0.00 0.00 0.00 36
20260506020408 67 271 6.0 13.0 0.00 0.00 0.00 36
20260506020116 68 267 7.0 14.0 0.00 0.00 0.00 36
20260506015908 68 267 7.0 14.0 0.00 0.00 0.00 36
20260506015757 69 266 8.0 15.0 0.00 0.00 0.00 36
20260506015408 69 266 8.0 15.0 0.00 0.00 0.00 36
20260506015257 70 274 8.0 15.0 0.00 0.00 0.00 36
20260506014908 70 274 8.0 15.0 0.00 0.00 0.00 36
20260506014614 71 268 7.0 19.0 0.00 0.00 0.00 36
20260506014408 71 268 7.0 19.0 0.00 0.00 0.00 36
20260506014220 72 265 10.0 19.0 0.00 0.00 0.00 36
20260506013908 72 265 10.0 19.0 0.00 0.00 0.00 36
20260506013702 72 250 8.0 15.0 0.00 0.00 0.00 36
20260506013408 72 250 8.0 15.0 0.00 0.00 0.00 36
20260506013207 72 262 9.0 15.0 0.00 0.00 0.00 36
20260506012908 72 262 9.0 15.0 0.00 0.00 0.00 36
20260506012748 73 257 8.0 16.0 0.00 0.00 0.00 36
20260506012408 73 257 8.0 16.0 0.00 0.00 0.00 36
20260506012157 73 258 10.0 16.0 0.00 0.00 0.00 36
20260506011908 73 258 10.0 16.0 0.00 0.00 0.00 36
20260506011654 72 269 10.0 16.0 0.00 0.00 0.00 36
20260506011408 72 269 10.0 16.0 0.00 0.00 0.00 36
20260506011212 72 252 10.0 17.0 0.00 0.00 0.00 36
20260506010908 72 252 10.0 17.0 0.00 0.00 0.00 36
20260506010630 73 254 11.0 19.0 0.00 0.00 0.00 36
20260506010408 73 254 11.0 19.0 0.00 0.00 0.00 36
20260506010210 74 246 12.0 19.0 0.00 0.00 0.00 36
20260506005908 74 246 12.0 19.0 0.00 0.00 0.00 36
20260506005640 74 257 11.0 17.0 0.00 0.00 0.00 36
20260506005408 74 257 11.0 17.0 0.00 0.00 0.00 36
20260506005139 73 265 8.0 15.0 0.00 0.00 0.00 36
20260506004908 73 265 8.0 15.0 0.00 0.00 0.00 36
20260506004555 73 246 9.0 15.0 0.00 0.00 0.00 36
20260506004408 73 246 9.0 15.0 0.00 0.00 0.00 36
20260506004124 74 261 9.0 17.0 0.00 0.00 0.00 37
20260506003908 74 261 9.0 17.0 0.00 0.00 0.00 37
20260506003601 74 253 10.0 19.0 0.00 0.00 0.00 36
20260506003408 74 253 10.0 19.0 0.00 0.00 0.00 36
20260506003137 74 256 11.0 19.0 0.00 0.00 0.00 36
20260506002908 74 256 11.0 19.0 0.00 0.00 0.00 36
20260506002640 73 275 6.0 13.0 0.00 0.00 0.00 36